| time (UTC) | temp C | wind direction | speed KPH | gust KPH | rain 1hr cm | rain 24hr cm | rain mn cm | humidity % | barometer mb |
| 20260504190003 | 17 | 304 | 27.4 | 49.9 | 0.00 | 0.00 | 0.00 | 36 | 1005.6 |
| 20260504185004 | 17 | 302 | 30.6 | 49.9 | 0.00 | 0.00 | 0.00 | 35 | 1005.5 |
| 20260504184004 | 17 | 296 | 29.0 | 57.9 | 0.00 | 0.00 | 0.00 | 34 | 1005.5 |
| 20260504181004 | 18 | 309 | 24.1 | 45.1 | 0.00 | 0.00 | 0.00 | 35 | 1005.0 |
| 20260504180003 | 17 | 302 | 27.4 | 49.9 | 0.00 | 0.00 | 0.00 | 36 | 1004.8 |
| 20260504175004 | 18 | 306 | 27.4 | 48.3 | 0.00 | 0.00 | 0.00 | 39 | 1004.6 |
| 20260504174004 | 17 | 305 | 29.0 | 40.2 | 0.00 | 0.00 | 0.00 | 39 | 1004.7 |
| 20260504173003 | 17 | 309 | 27.4 | 51.5 | 0.00 | 0.00 | 0.00 | 36 | 1004.6 |
| 20260504171004 | 17 | 307 | 24.1 | 41.8 | 0.00 | 0.00 | 0.00 | 37 | 1004.5 |
| 20260504141003 | 16 | 299 | 25.7 | 40.2 | 0.00 | 0.00 | 0.00 | 56 | 1003.1 |
| 20260504082003 | 8 | 219 | 12.9 | 19.3 | 0.00 | 0.00 | 0.00 | 67 | 1003.8 |
| 20260504081004 | 9 | 212 | 14.5 | 22.5 | 0.00 | 0.00 | 0.00 | 65 | 1003.8 |
| 20260504043004 | 9 | 236 | 1.6 | 4.8 | 0.00 | 0.00 | 0.00 | 61 | 1006.8 |
| 20260504042004 | 10 | 248 | 0.0 | 4.8 | 0.00 | 0.00 | 0.00 | 60 | 1007.0 |
| 20260504041004 | 10 | 239 | 3.2 | 4.8 | 0.00 | 0.00 | 0.00 | 61 | 1007.1 |
| 20260504040003 | 9 | 237 | 4.8 | 4.8 | 0.00 | 0.00 | 0.00 | 63 | 1007.3 |
| 20260504035004 | 9 | 209 | 3.2 | 4.8 | 0.00 | 0.00 | 0.00 | 62 | 1007.3 |
| 20260504033004 | 10 | 222 | 3.2 | 4.8 | 0.00 | 0.00 | 0.00 | 59 | 1007.8 |
| 20260504031004 | 11 | 226 | 1.6 | 3.2 | 0.00 | 0.00 | 0.00 | 56 | 1008.2 |
| 20260504025003 | 11 | 225 | 1.6 | 4.8 | 0.00 | 0.00 | 0.00 | 53 | 1008.3 |
| 20260504024003 | 12 | 229 | 3.2 | 4.8 | 0.00 | 0.00 | 0.00 | 52 | 1008.3 |
| 20260504022003 | 12 | 232 | 3.2 | 8.0 | 0.00 | 0.00 | 0.00 | 51 | 1008.2 |
| 20260504021004 | 12 | 257 | 1.6 | 4.8 | 0.00 | 0.00 | 0.00 | 49 | 1008.1 |
| 20260504015003 | 13 | 242 | 3.2 | 9.7 | 0.00 | 0.00 | 0.00 | 47 | 1008.3 |
| 20260504014003 | 14 | 249 | 3.2 | 11.3 | 0.00 | 0.00 | 0.00 | 46 | 1008.3 |
| 20260504013003 | 15 | 249 | 4.8 | 11.3 | 0.00 | 0.00 | 0.00 | 43 | 1008.3 |
| 20260504011004 | 17 | 265 | 11.3 | 16.1 | 0.00 | 0.00 | 0.00 | 37 | 1008.3 |
| 20260504005004 | 18 | 279 | 9.7 | 19.3 | 0.00 | 0.00 | 0.00 | 35 | 1008.3 |
| 20260504004003 | 19 | 270 | 12.9 | 19.3 | 0.00 | 0.00 | 0.00 | 34 | 1008.4 |
| 20260504003003 | 19 | 264 | 14.5 | 27.4 | 0.00 | 0.00 | 0.00 | 32 | 1008.4 |
| 20260504001004 | 20 | 265 | 19.3 | 29.0 | 0.00 | 0.00 | 0.00 | 30 | 1008.4 |
| 20260504000003 | 20 | 271 | 11.3 | 25.7 | 0.00 | 0.00 | 0.00 | 31 | 1008.5 |
| 20260503235004 | 21 | 275 | 16.1 | 25.7 | 0.00 | 0.00 | 0.00 | 31 | 1008.5 |
| 20260503234004 | 21 | 298 | 16.1 | 25.7 | 0.00 | 0.00 | 0.00 | 29 | 1008.6 |
| 20260503233004 | 21 | 266 | 19.3 | 25.7 | 0.00 | 0.00 | 0.00 | 30 | 1008.6 |
| 20260503232003 | 21 | 277 | 24.1 | 32.2 | 0.00 | 0.00 | 0.00 | 27 | 1008.7 |
| 20260503231003 | 21 | 295 | 14.5 | 22.5 | 0.00 | 0.00 | 0.00 | 29 | 1008.8 |
| 20260503225004 | 21 | 287 | 19.3 | 32.2 | 0.00 | 0.00 | 0.00 | 29 | 1009.1 |
| 20260503223003 | 21 | 287 | 20.9 | 32.2 | 0.00 | 0.00 | 0.00 | 29 | 1009.0 |
| 20260503222003 | 21 | 262 | 16.1 | 29.0 | 0.00 | 0.00 | 0.00 | 30 | 1009.0 |
| 20260503221004 | 21 | 293 | 17.7 | 32.2 | 0.00 | 0.00 | 0.00 | 29 | 1009.2 |
| 20260503220003 | 21 | 277 | 22.5 | 32.2 | 0.00 | 0.00 | 0.00 | 27 | 1009.4 |
| 20260503213004 | 21 | 292 | 12.9 | 33.8 | 0.00 | 0.00 | 0.00 | 30 | 1009.5 |
| 20260503212004 | 21 | 302 | 4.8 | 25.7 | 0.00 | 0.00 | 0.00 | 31 | 1009.6 |
| 20260503211003 | 21 | 301 | 22.5 | 32.2 | 0.00 | 0.00 | 0.00 | 32 | 1009.8 |
| 20260503205003 | 21 | 284 | 19.3 | 41.8 | 0.00 | 0.00 | 0.00 | 31 | 1010.2 |
| 20260503204004 | 21 | 299 | 22.5 | 32.2 | 0.00 | 0.00 | 0.00 | 30 | 1010.4 |
| 20260503203003 | 21 | 315 | 9.7 | 38.6 | 0.00 | 0.00 | 0.00 | 33 | 1010.5 |
| 20260503202004 | 21 | 299 | 20.9 | 33.8 | 0.00 | 0.00 | 0.00 | 34 | 1010.6 |
| 20260503201004 | 20 | 312 | 16.1 | 33.8 | 0.00 | 0.00 | 0.00 | 36 | 1010.8 |
| 20260503200003 | 20 | 303 | 25.7 | 35.4 | 0.00 | 0.00 | 0.00 | 34 | 1010.9 |
| 20260503194003 | 20 | 307 | 29.0 | 40.2 | 0.00 | 0.00 | 0.00 | 34 | 1011.1 |
| 20260503192004 | 20 | 309 | 19.3 | 33.8 | 0.00 | 0.00 | 0.00 | 35 | 1011.5 |
| 20260503191003 | 20 | 306 | 25.7 | 41.8 | 0.00 | 0.00 | 0.00 | 35 | 1011.5 |